EW3995 Weather Reports


time (UTC)temp
C
wind
direction
speed
KPH
gust
KPH
rain 1hr
cm
rain 24hr
cm
rain mn
cm
humidity
%
barometer
mb
20260504081218 18 233 4.8 8.0 0.00 0.00 0.00 26 1005.4
20260504080218 18 208 4.8 11.3 0.00 0.00 0.00 27 1005.4
20260504050452 16 213 6.4 11.3 0.00 0.00 0.00 34 1006.4
20260504045453 16 202 8.0 11.3 0.00 0.00 0.00 34 1006.4
20260504044453 15 199 6.4 12.9 0.00 0.00 0.00 35 1007.5
20260504043453 15 182 6.4 9.7 0.00 0.00 0.00 36 1007.5
20260504042452 15 205 4.8 9.7 0.00 0.00 0.00 38 1007.5
20260504041302 14 225 4.8 8.0 0.00 0.00 0.00 41 1007.5
20260504040302 13 200 4.8 9.7 0.00 0.00 0.00 46 1006.4
20260504035302 11 176 3.2 9.7 0.00 0.00 0.00 49 1006.4
20260504034301 9 170 3.2 6.4 0.00 0.00 0.00 55 1007.5
20260504033302 7 174 3.2 6.4 0.00 0.00 0.00 54 1007.5
20260504032303 6 140 3.2 4.8 0.00 0.00 0.00 54 1007.5
20260504031301 5 139 3.2 6.4 0.00 0.00 0.00 56 1007.5
20260504030302 5 191 3.2 6.4 0.00 0.00 0.00 57 1007.5
20260504025110 3 158 3.2 8.0 0.00 0.00 0.00 59 1007.5
20260504023919 3 142 4.8 6.4 0.00 0.00 0.00 61 1007.5
20260504022919 2 135 1.6 4.8 0.00 0.00 0.00 63 1008.5
20260504021919 2 158 3.2 4.8 0.00 0.00 0.00 64 1007.5
20260504020919 1 135 0.0 4.8 0.00 0.00 0.00 66 1007.5
20260504015919 1 140 1.6 3.2 0.00 0.00 0.00 67 1008.5
20260504014919 0 135 0.0 1.6 0.00 0.00 0.00 68 1008.5
20260504013919 0 135 0.0 1.6 0.00 0.00 0.00 69 1008.5
20260504012919 0 135 0.0 0.0 0.00 0.00 0.00 69 1008.5
20260504011919 -1 135 0.0 0.0 0.00 0.00 0.00 70 1008.5
20260504010727 -1 135 0.0 0.0 0.00 0.00 0.00 71 1008.5
20260504005728 -1 135 0.0 0.0 0.00 0.00 0.00 71 1009.6
20260504004727 -2 135 0.0 0.0 0.00 0.00 0.00 71 1009.6
20260504003727 -2 135 0.0 0.0 0.00 0.00 0.00 72 1009.6
20260504002536 -2 135 0.0 0.0 0.00 0.00 0.00 71 1009.6
20260504001536 -2 225 0.0 0.0 0.00 0.00 0.00 71 1009.6
20260504000536 -2 225 0.0 0.0 0.00 0.00 0.00 70 1009.6
20260503235536 -2 225 0.0 0.0 0.00 0.00 0.00 71 1009.6
20260503234406 -2 225 0.0 0.0 0.00 0.00 0.00 71 1009.6
20260503233214 -2 225 0.0 0.0 0.00 0.00 0.00 70 1008.5
20260503232215 -2 225 0.0 0.0 0.00 0.00 0.00 70 1008.5
20260503231044 -2 225 0.0 0.0 0.00 0.00 0.00 70 1009.6
20260503230044 -2 225 0.0 0.0 0.00 0.00 0.00 71 1008.5
20260503225044 -2 225 0.0 0.0 0.00 0.00 0.00 68 1009.6
20260503224044 -2 225 0.0 0.0 0.00 0.00 0.00 68 1009.6
20260503223044 -2 225 0.0 0.0 0.00 0.00 0.00 66 1009.6
20260503222044 -2 225 0.0 0.0 0.00 0.00 0.00 65 1009.6
20260503221044 -2 225 0.0 0.0 0.00 0.00 0.00 65 1009.6
20260503220044 -1 225 0.0 0.0 0.00 0.00 0.00 64 1010.6
20260503215044 -1 225 0.0 0.0 0.00 0.00 0.00 64 1010.6
20260503214044 -1 225 0.0 0.0 0.00 0.00 0.00 63 1010.6
20260503213044 -1 225 0.0 0.0 0.00 0.00 0.00 63 1010.6
20260503212044 -1 225 0.0 0.0 0.00 0.00 0.00 63 1010.6
20260503210914 -1 225 0.0 0.0 0.00 0.00 0.00 62 1010.6
20260503205914 -1 225 0.0 0.0 0.00 0.00 0.00 61 1010.6
20260503204914 -1 225 0.0 1.6 0.00 0.00 0.00 60 1010.6
20260503203914 0 225 0.0 0.0 0.00 0.00 0.00 60 1010.6
20260503202914 0 225 0.0 0.0 0.00 0.00 0.00 59 1010.6
20260503201914 0 225 0.0 0.0 0.00 0.00 0.00 59 1010.6
20260503200914 0 225 0.0 0.0 0.00 0.00 0.00 58 1010.6
20260503195914 0 225 0.0 1.6 0.00 0.00 0.00 57 1011.6
20260503194914 0 202 0.0 0.0 0.00 0.00 0.00 57 1011.6
20260503193914 0 202 0.0 3.2 0.00 0.00 0.00 57 1011.6
20260503192914 0 76 0.0 3.2 0.00 0.00 0.00 58 1011.6
20260503191914 0 68 0.0 1.6 0.00 0.00 0.00 58 1011.6
20260503190914 0 68 0.0 1.6 0.00 0.00 0.00 57 1011.6
20260503185914 1 68 0.0 1.6 0.00 0.00 0.00 56 1011.6
20260503184914 1 68 0.0 1.6 0.00 0.00 0.00 56 1011.6
20260503183914 1 68 0.0 3.2 0.00 0.00 0.00 56 1011.6
20260503182914 1 68 0.0 0.0 0.00 0.00 0.00 55 1011.6
20260503181914 1 68 0.0 0.0 0.00 0.00 0.00 54 1011.6
20260503180914 1 68 0.0 3.2 0.00 0.00 0.00 54 1011.6
20260503175914 1 68 0.0 0.0 0.00 0.00 0.00 53 1011.6
20260503174914 2 68 0.0 1.6 0.00 0.00 0.00 52 1011.6
20260503173914 2 68 0.0 1.6 0.00 0.00 0.00 52 1011.6
20260503172914 2 68 0.0 1.6 0.00 0.00 0.00 50 1011.6
20260503171914 2 248 0.0 1.6 0.00 0.00 0.00 49 1011.6
20260503170914 3 248 0.0 1.6 0.00 0.00 0.00 48 1011.6
20260503150723 10 188 4.8 12.9 0.00 0.00 0.00 38 1011.6
20260503130552 16 264 3.2 14.5 0.00 0.00 0.00 34 1011.6
20260503110553 14 198 8.0 27.4 0.00 0.00 0.00 36 1012.7
20260503090422 14 202 4.8 17.7 0.00 0.00 0.00 36 1013.7